Location: Estes Par
(40.3770°N, 105.5210°W)
Time: 03:25:55
(UTC-06:00)

Vanguard 1 Rocket - All Passes

Search period start: 24 June 2018 00:00
Search period end: 04 July 2018 00:00
Orbit: 653 x 4224 km, 34.3° (Epoch: 23 June)

Date Brightness Start Highest point End Pass type
(mag) Time Alt. Az. Time Alt. Az. Time Alt. Az.
24 Jun - 16:21:25 10° SW 16:25:14 26° SSE 16:29:04 10° ESE daylight
24 Jun - 18:45:07 10° WSW 18:49:27 44° S 18:55:37 10° ESE daylight
24 Jun - 21:09:11 10° WSW 21:14:28 31° SSW 21:23:03 10° SE visible
24 Jun - 23:36:23 10° SW 23:40:58 14° SSW 23:46:49 10° S visible
25 Jun - 15:11:16 10° SSW 15:14:40 18° SSE 15:17:41 10° ESE daylight
25 Jun - 17:34:46 10° WSW 17:38:53 40° S 17:43:46 10° ESE daylight
25 Jun - 19:58:46 10° WSW 20:03:25 37° S 20:10:38 10° SE daylight
25 Jun - 22:24:03 10° WSW 22:29:07 19° SSW 22:36:23 10° SSE visible
26 Jun - 14:01:51 10° S 14:03:53 12° SSE 14:05:42 10° SE daylight
26 Jun - 16:24:14 10° SW 16:28:22 32° SSE 16:32:25 10° ESE daylight
26 Jun - 18:48:25 10° WSW 18:52:39 40° S 18:58:31 10° ESE daylight
26 Jun - 21:12:56 10° WSW 21:17:41 24° SSW 21:24:50 10° SSE visible
27 Jun - 15:13:33 10° SW 15:17:49 24° SSE 15:21:24 10° ESE daylight
27 Jun - 17:37:56 10° WSW 17:42:04 41° S 17:46:52 10° ESE daylight
27 Jun - 20:02:16 10° WSW 20:06:38 29° SSW 20:13:01 10° SE daylight
27 Jun - 22:29:17 10° SW 22:32:22 12° SSW 22:36:07 10° S visible
28 Jun - 14:02:54 10° SSW 14:07:03 18° SSE 14:10:21 10° ESE daylight
28 Jun - 16:27:11 10° WSW 16:31:33 37° S 16:35:42 10° ESE daylight
28 Jun - 18:51:46 10° WSW 18:55:51 34° S 19:01:18 10° SE daylight
28 Jun - 21:17:04 10° WSW 21:20:56 17° SSW 21:26:07 10° SSE visible
29 Jun - 12:52:47 10° S 12:56:01 13° SSE 12:58:42 10° SE daylight
29 Jun - 15:16:07 10° SW 15:20:59 31° SSE 15:24:54 10° ESE daylight
29 Jun - 17:41:09 10° WSW 17:45:16 39° S 17:49:55 10° ESE daylight
29 Jun - 20:05:58 10° WSW 20:09:50 22° SSW 20:15:07 10° SSE daylight
30 Jun - 14:04:50 10° SW 14:10:16 25° SSE 14:14:13 10° ESE daylight
30 Jun - 16:30:13 10° WSW 16:34:45 40° S 16:38:55 10° ESE daylight
30 Jun - 18:55:12 10° WSW 18:59:03 28° SSW 19:03:56 10° SE daylight
30 Jun - 21:22:41 10° SW 21:24:10 11° SSW 21:25:49 10° S visible
01 Jul - 12:53:35 10° SSW 12:59:16 19° SSE 13:03:20 10° ESE daylight
01 Jul - 15:18:52 10° WSW 15:24:11 37° S 15:28:16 10° ESE daylight
01 Jul - 17:44:25 10° WSW 17:48:28 35° S 17:52:53 10° ESE daylight
01 Jul - 20:10:04 10° WSW 20:13:02 15° SSW 20:16:42 10° SSE daylight
02 Jul - 11:42:51 10° S 11:47:54 15° SSE 11:51:46 10° SE daylight
02 Jul - 14:07:08 10° SW 14:13:28 32° SSE 14:17:48 10° ESE daylight
02 Jul - 16:33:20 10° WSW 16:37:56 40° S 16:42:06 10° ESE daylight
02 Jul - 18:58:48 10° WSW 19:02:13 21° SSW 19:06:19 10° SSE daylight
03 Jul - 10:35:01 10° SSE 10:36:10 10° SSE 10:37:14 10° SSE daylight
03 Jul - 12:55:11 10° SW 13:02:29 27° SSE 13:07:15 10° ESE daylight
03 Jul - 15:21:45 10° WSW 15:27:23 42° S 15:31:35 10° ESE daylight
03 Jul - 17:47:45 10° WSW 17:51:37 29° SSW 17:55:44 10° SE daylight
